Weather History for Hettinger, ND

Change the Weather History Date:

Thursday, January 17, 2013

  Actual Average Record
Temperature  
Mean Temperature 33 °F -  
Max Temperature 43 °F 28 °F 46 °F (2000)
Min Temperature 23 °F 5 °F -20 °F (1997)
Degree Days  
Heating Degree Days 32 48  
Month to date heating degree days 775 831  
Since 1 July heating degree days 4208 4410  
Moisture  
Dew Point 26 °F    
Average Humidity 74    
Maximum Humidity 92    
Minimum Humidity 53    
Precipitation  
Precipitation 0.00 in 0.01 in 0.01 in (1999)
Month to date precipitation T 0.17  
Year to date precipitation T 0.17  
Sea Level Pressure  
Sea Level Pressure 30.22 in    
Wind  
Wind Speed 7 mph (West)    
Max Wind Speed 15 mph    
Max Gust Speed 17 mph    
Visibility 10 miles    
Events      
T = Trace of Precipitation, MM = Missing Value Source: NWS Daily Summary

Daily Weather History Graph

Daily Weather History Graph

Search for Another Location

Airport:

Trip Planner

Search our weather history database for the weather conditions in past years. The results will help you decide how hot, cold, wet, or windy it might be!

Date:

Astronomy

Jan. 17, 2013 Rise Set
Actual Time 7:27 AM MST 4:35 PM MST
Civil Twilight 6:53 AM MST 5:08 PM MST
Nautical Twilight 6:16 AM MST 5:45 PM MST
Astronomical Twilight 5:41 AM MST 6:20 PM MST
Moon 10:10 AM MST 11:54 PM MST
Length of Visible Light 10h 14m
Length of Day
9h 07m
Waxing Crescent, 38% of the Moon is Illuminated
Jan 17
Waxing Crescent
Jan 18
First Quarter
Jan 26
Full
Feb 3
Last Quarter
Feb 10
New

Hourly Weather History & Observations

Time (MST) Temp. Windchill Dew Point Humidity Pressure Visibility Wind Dir Wind Speed Gust Speed Precip Events Conditions
12:53 AM 33.1 °F 25.5 °F 28.0 °F 82% 30.27 in 10.0 mi West 9.2 mph - N/A   Overcast
1:53 AM 32.0 °F 24.2 °F 27.0 °F 82% 30.30 in 10.0 mi West 9.2 mph - N/A   Overcast
2:29 AM 33.8 °F 25.3 °F 26.6 °F 75% 30.23 in 10.0 mi West 11.5 mph - N/A   Overcast
2:53 AM 32.0 °F 23.6 °F 27.0 °F 82% 30.31 in 10.0 mi West 10.4 mph - N/A   Overcast
3:29 AM 30.2 °F 21.9 °F 26.6 °F 86% 30.25 in 10.0 mi WNW 9.2 mph - N/A   Overcast
3:48 AM 30.2 °F 21.9 °F 26.6 °F 86% 30.24 in 10.0 mi WNW 9.2 mph - N/A   Overcast
3:53 AM 30.9 °F 22.2 °F 27.0 °F 85% 30.32 in 10.0 mi West 10.4 mph - N/A   Overcast
4:45 AM 32.0 °F 24.2 °F 26.6 °F 80% 30.26 in 10.0 mi West 9.2 mph - N/A   Overcast
4:53 AM 32.0 °F 24.2 °F 27.0 °F 82% 30.33 in 10.0 mi West 9.2 mph - N/A   Overcast
5:12 AM 32.0 °F 24.2 °F 26.6 °F 80% 30.25 in 10.0 mi West 9.2 mph - N/A   Overcast
5:53 AM 30.9 °F 24.3 °F 27.0 °F 85% 30.34 in 10.0 mi West 6.9 mph - N/A   Overcast
6:53 AM 27.0 °F 21.6 °F 24.1 °F 89% 30.35 in 10.0 mi WNW 4.6 mph - N/A   Mostly Cloudy
7:53 AM 27.0 °F 20.5 °F 24.1 °F 89% 30.37 in 10.0 mi NW 5.8 mph - N/A   Overcast
8:53 AM 28.9 °F - 25.0 °F 85% 30.37 in 10.0 mi Calm Calm - N/A   Mostly Cloudy
9:50 AM 32.0 °F 25.6 °F 26.6 °F 80% 30.28 in 10.0 mi West 6.9 mph - N/A   Mostly Cloudy
10:32 AM 33.8 °F 27.7 °F 26.6 °F 75% 30.27 in 10.0 mi West 6.9 mph - N/A   Scattered Clouds
10:53 AM 35.1 °F 29.3 °F 26.1 °F 70% 30.33 in 10.0 mi WSW 6.9 mph - N/A   Clear
11:53 AM 36.0 °F 31.1 °F 27.0 °F 70% 30.27 in 10.0 mi SW 5.8 mph - N/A   Clear
12:53 PM 39.0 °F 32.8 °F 27.0 °F 62% 30.23 in 10.0 mi SSW 9.2 mph - N/A   Clear
1:53 PM 41.0 °F 38.0 °F 26.1 °F 55% 30.19 in 10.0 mi SSW 4.6 mph - N/A   Clear
2:53 PM 43.0 °F - 27.0 °F 53% 30.17 in 10.0 mi North - - N/A   Clear
3:53 PM 39.9 °F - 27.0 °F 60% 30.16 in 10.0 mi North - - N/A   Clear
4:53 PM 36.0 °F - 25.0 °F 64% 30.15 in 10.0 mi North - - N/A   Clear
5:53 PM 33.1 °F - 24.1 °F 70% 30.13 in 10.0 mi North - - N/A   Clear
6:53 PM 32.0 °F - 23.0 °F 69% 30.11 in 10.0 mi North - - N/A   Clear
7:53 PM 33.1 °F - 24.1 °F 70% 30.09 in 10.0 mi North - - N/A   Clear
8:53 PM 33.1 °F - 24.1 °F 70% 30.06 in 10.0 mi North - - N/A   Clear
9:53 PM 34.0 °F - 24.1 °F 67% 30.01 in 10.0 mi North - - N/A   Clear
10:53 PM 35.1 °F - 23.0 °F 61% 29.97 in 10.0 mi North - - N/A   Clear
11:53 PM 35.1 °F - 23.0 °F 61% 29.94 in 10.0 mi North - - N/A   Clear